Location: Asheville, NC
(35.6000°N, 82.5500°W)
Time: 00:28:14
(UTC-04:00)

Vanguard 3 - Pass Details

Date: 15 March 2018
Orbit: 508 x 3264 km, 33.3° (Epoch: 24 June)

Event Time Altitude Azimuth Distance (km) Brightness Sun altitude
Rises 14:01:43 0° 281° (W) 6,732 11.8 52.1°
Reaches altitude 10° 14:06:49 10° 279° (W) 5,375 11.5 51.9°
Maximum altitude 14:21:00 59° 205° (SSW) 1,965 11.7 51.2°
Drops below altitude 10° 14:28:55 10° 128° (SE) 3,124 10.4 50.7°
Sets 14:31:08 0° 124° (ESE) 3,818 10.7 50.5°
